ORBCOMM FM20

Last updated on Mon Sep 21 2026 00:03:10 GMT+0000 (Coordinated Universal Time)

1 25416U 98046D 26263.39201102 .00000360 00000+0 16412-3 0 9997 2 25416 44.9932 159.9469 0001746 21.0401 339.0519 14.38176541470494
UTC large
Height (km)
Speed (km/s)
/
Latitude / Longitude
Inclination (degrees)
Orbital Period (minutes)
Azimuth
Elevation
Range (km)
Doppler Factor

Next 0 passes for location: London (51.5072 / 0.1276)

No passes found over London.
ORBCOMM FM20